FW4154 Weather Reports


Display with metric or nautical units.
time (UTC)temp
F
wind
direction
speed
MPH
gust
MPH
rain 1hr
in
rain 24hr
in
rain mn
in
humidity
%
barometer
mb
20260509225340 67 275 2.0 10.0 0.00 0.00 0.00 64 1000.2
20260509224835 67 325 4.0 10.0 0.00 0.00 0.00 64 1000.2
20260509223840 66 309 5.0 12.0 0.00 0.00 0.00 65 1000.2
20260509223333 67 267 8.0 13.0 0.00 0.00 0.00 62 1000.2
20260509222332 67 302 6.0 11.0 0.00 0.00 0.00 61 1000.2
20260509221335 67 309 5.0 10.0 0.00 0.00 0.00 60 1000.2
20260509220347 67 327 8.0 13.0 0.00 0.00 0.00 59 1000.2
20260509215343 67 317 5.0 11.0 0.00 0.00 0.00 60 1000.2
20260509214835 67 279 4.0 10.0 0.00 0.00 0.00 61 1000.2
20260509214324 67 330 7.0 10.0 0.00 0.00 0.00 60 1000.2
20260509213341 68 329 6.0 11.0 0.00 0.00 0.00 60 1000.2
20260509212826 68 281 3.0 9.0 0.00 0.00 0.00 62 1000.2
20260509211839 68 304 3.0 10.0 0.00 0.00 0.00 62 1000.2
20260509211337 67 281 4.0 16.0 0.00 0.00 0.00 63 1000.2
20260509210341 67 258 3.0 11.0 0.00 0.00 0.00 66 1000.2
20260509205837 67 209 5.0 11.0 0.00 0.00 0.00 66 1000.2
20260509204839 66 234 3.0 7.0 0.00 0.00 0.00 67 1000.2
20260509204336 66 323 3.0 9.0 0.00 0.00 0.00 66 1000.2
20260509203344 65 216 4.0 6.0 0.00 0.00 0.00 71 1000.2
20260509202338 65 227 3.0 9.0 0.00 0.00 0.00 68 1000.2
20260509201830 64 163 5.0 9.0 0.00 0.00 0.00 72 1000.2
20260509201327 64 163 4.0 7.0 0.00 0.00 0.00 73 1000.2
20260509200333 64 202 1.0 7.0 0.00 0.00 0.00 72 1000.2
20260509194850 64 285 4.0 7.0 0.00 0.00 0.00 73 1000.2
20260509194345 64 172 4.0 6.0 0.00 0.00 0.00 75 1000.2
20260509193843 64 169 2.0 7.0 0.00 0.00 0.00 71 1000.2
20260509192843 64 270 3.0 8.0 0.00 0.00 0.00 70 1000.2
20260509192342 63 222 5.0 9.0 0.00 0.00 0.00 77 1000.2
20260509191341 63 174 5.0 6.0 0.00 0.00 0.00 74 1000.2
20260509190345 62 184 4.0 6.0 0.00 0.00 0.00 74 1000.2
20260509185842 62 158 2.0 7.0 0.00 0.00 0.00 74 1000.2
20260509185341 62 157 4.0 7.0 0.00 0.00 0.00 76 1000.2
20260509184835 61 157 4.0 7.0 0.00 0.00 0.00 78 1000.2
20260509183841 61 148 3.0 7.0 0.00 0.00 0.00 75 1000.2
20260509183335 61 148 4.0 7.0 0.00 0.00 0.00 74 1000.2
20260509182334 61 178 5.0 6.0 0.00 0.00 0.00 75 1000.2
20260509181335 61 149 2.0 3.0 0.00 0.00 0.00 74 1000.2
20260509180831 61 149 1.0 2.0 0.00 0.00 0.00 75 1000.2
20260509175841 60 149 1.0 3.0 0.00 0.00 0.00 76 1000.2
20260509174839 60 149 3.0 6.0 0.00 0.00 0.00 79 1000.2
20260509174332 59 150 4.0 7.0 0.00 0.00 0.00 79 1000.2
20260509173833 59 150 4.0 7.0 0.00 0.00 0.00 82 1000.2
20260509172848 58 165 5.0 7.0 0.00 0.00 0.00 84 1000.2
20260509171843 58 166 5.0 6.0 0.00 0.00 0.00 85 1000.2
20260509170841 57 165 4.0 6.0 0.00 0.00 0.00 85 1000.2
20260509165841 57 164 5.0 6.0 0.00 0.00 0.00 87 1000.2
20260509165331 57 164 4.0 6.0 0.00 0.00 0.00 88 1000.2
20260509163831 56 171 4.0 5.0 0.00 0.00 0.00 85 1000.2
20260509162856 56 177 2.0 4.0 0.00 0.00 0.00 85 1000.2
20260509162341 56 177 2.0 4.0 0.00 0.00 0.00 86 1000.2
20260509161837 56 177 2.0 4.0 0.00 0.00 0.00 88 1000.2
20260509160839 55 175 3.0 5.0 0.00 0.00 0.00 89 1000.2
20260509160330 55 175 4.0 6.0 0.00 0.00 0.00 89 1000.2
20260509155342 55 160 3.0 6.0 0.00 0.00 0.00 88 1000.2
20260509154332 56 44 1.0 4.0 0.00 0.00 0.00 83 1000.2
20260509153338 55 46 2.0 3.0 0.00 0.00 0.00 85 1000.2
20260509151833 54 69 1.0 2.0 0.00 0.00 0.00 87 1000.2
20260509150831 53 69 0.0 3.0 0.00 0.00 0.00 87 1000.2
20260509145844 52 69 0.0 3.0 0.00 0.00 0.00 89 1000.2
20260509145327 52 360 1.0 3.0 0.00 0.00 0.00 90 1000.2
20260509144342 51 360 2.0 4.0 0.00 0.00 0.00 90 1000.2
20260509143346 50 360 2.0 5.0 0.00 0.00 0.00 92 1000.2
20260509142832 50 360 2.0 5.0 0.00 0.00 0.00 92 1000.2
20260509142331 49 360 2.0 4.0 0.00 0.00 0.00 92 1000.2
20260509141349 49 360 3.0 5.0 0.00 0.00 0.00 93 1000.2
20260509140345 48 360 3.0 5.0 0.00 0.00 0.00 93 1000.2
20260509135837 48 360 3.0 5.0 0.00 0.00 0.00 93 1000.2
20260509134841 47 360 2.0 4.0 0.00 0.00 0.00 94 1000.2
20260509134323 47 360 2.0 3.0 0.00 0.00 0.00 94 1000.2
20260509133333 46 360 0.0 0.0 0.00 0.00 0.00 94 1000.2
20260509132343 46 360 0.0 0.0 0.00 0.00 0.00 95 1000.2
20260509131343 46 360 0.0 2.0 0.00 0.00 0.00 94 1000.2
20260509130833 46 360 0.0 2.0 0.00 0.00 0.00 94 1000.2
20260509125828 45 360 1.0 4.0 0.00 0.00 0.00 94 1000.2
20260509124835 45 360 1.0 4.0 0.00 0.00 0.00 94 1000.2
20260509123836 46 360 2.0 4.0 0.00 0.00 0.00 94 1000.2
20260509122837 46 360 2.0 4.0 0.00 0.00 0.00 94 1000.2
20260509121844 46 360 1.0 4.0 0.00 0.00 0.00 94 1000.2
20260509121334 46 360 1.0 3.0 0.00 0.00 0.00 94 1000.2
20260509120833 46 360 0.0 3.0 0.00 0.00 0.00 93 1000.2
20260509120332 46 360 1.0 2.0 0.00 0.00 0.00 93 1000.2
20260509115826 47 360 1.0 2.0 0.00 0.00 0.00 93 1000.2
20260509114837 47 360 1.0 2.0 0.00 0.00 0.00 94 1000.2
20260509113845 47 360 1.0 3.0 0.00 0.00 0.00 94 1000.2
20260509113341 47 360 1.0 4.0 0.00 0.00 0.00 94 1000.2
20260509112826 47 360 3.0 4.0 0.00 0.00 0.00 94 1000.2
20260509111828 47 360 2.0 4.0 0.00 0.00 0.00 94 1000.2
20260509110836 47 360 0.0 0.0 0.00 0.00 0.00 94 1000.2
20260509105848 47 360 0.0 0.0 0.00 0.00 0.00 94 1000.2
20260509105331 47 360 0.0 0.0 0.00 0.00 0.00 94 1000.2
20260509104340 47 360 0.0 0.0 0.00 0.00 0.00 94 1000.2
20260509103335 47 360 0.0 0.0 0.00 0.00 0.00 93 1000.2
20260509101334 48 360 1.0 2.0 0.00 0.00 0.00 93 1000.2
20260509100334 48 360 0.0 2.0 0.00 0.00 0.00 93 1000.2
20260509095345 48 360 1.0 3.0 0.00 0.00 0.00 93 1000.2
20260509094839 48 360 1.0 3.0 0.00 0.00 0.00 93 1000.2
20260509093842 48 360 0.0 3.0 0.00 0.00 0.00 93 1000.2
20260509092833 48 360 0.0 2.0 0.00 0.00 0.00 92 1000.2
20260509091846 49 360 0.0 2.0 0.00 0.00 0.00 92 1000.2
20260509091338 49 360 1.0 2.0 0.00 0.00 0.00 92 1000.2
20260509090338 49 360 0.0 2.0 0.00 0.00 0.00 92 1000.2
20260509085348 49 360 0.0 3.0 0.00 0.00 0.00 92 1000.2
20260509084829 49 360 1.0 3.0 0.00 0.00 0.00 91 1000.2
20260509083830 49 360 1.0 3.0 0.00 0.00 0.00 92 1000.2
20260509082849 49 360 0.0 2.0 0.00 0.00 0.00 92 1000.2
20260509082345 49 360 0.0 2.0 0.00 0.00 0.00 92 1000.2
20260509081341 49 360 0.0 2.0 0.00 0.00 0.00 92 1000.2
20260509080823 49 360 1.0 2.0 0.00 0.00 0.00 92 1000.2
20260509075831 49 360 0.0 2.0 0.00 0.00 0.00 91 1000.2
20260509075328 50 360 1.0 2.0 0.00 0.00 0.00 91 1000.2
20260509074345 50 360 1.0 2.0 0.00 0.00 0.00 91 1000.2
20260509073838 50 360 0.0 1.0 0.00 0.00 0.00 90 1000.2
20260509072844 50 360 0.0 2.0 0.00 0.00 0.00 90 1000.2
20260509072336 50 360 0.0 2.0 0.00 0.00 0.00 90 1000.2
20260509071349 50 360 0.0 1.0 0.00 0.00 0.00 89 1000.2
20260509070355 51 360 0.0 2.0 0.00 0.00 0.00 89 1000.2
20260509064832 51 360 0.0 0.0 0.00 0.00 0.00 89 1000.2
20260509064326 51 360 0.0 0.0 0.00 0.00 0.00 89 1000.2
20260509063344 52 360 0.0 2.0 0.00 0.00 0.00 88 1000.2
20260509062829 52 360 1.0 2.0 0.00 0.00 0.00 87 1000.2
20260509061845 53 360 0.0 3.0 0.00 0.00 0.00 87 1000.2
20260509061344 53 360 2.0 3.0 0.00 0.00 0.00 87 1000.2
20260509060603 52 360 0.0 1.0 0.00 0.00 0.00 85 1000.2
20260509042841 56 360 0.0 2.0 0.00 0.00 0.00 79 1000.2
20260509041849 57 360 0.0 3.0 0.00 0.00 0.00 77 1000.2
20260509040839 57 360 1.0 5.0 0.00 0.00 0.00 77 1000.2
20260509035844 56 360 0.0 2.0 0.00 0.00 0.00 79 1000.2
20260509034841 57 360 0.0 1.0 0.00 0.00 0.00 78 1000.2
20260509033847 58 360 0.0 2.0 0.00 0.00 0.00 74 1000.2
20260509032849 59 360 2.0 3.0 0.00 0.00 0.00 73 1000.2
20260509032344 60 360 1.0 3.0 0.00 0.00 0.00 72 1000.2
20260509031843 60 360 2.0 4.0 0.00 0.00 0.00 71 1000.2
20260509030852 60 360 2.0 5.0 0.00 0.00 0.00 74 1000.2
20260509025843 60 360 5.0 9.0 0.00 0.00 0.00 73 1000.2
20260509025342 60 360 5.0 10.0 0.00 0.00 0.00 75 1000.2
20260509024838 61 144 7.0 10.0 0.00 0.00 0.00 73 1000.2
20260509023848 61 146 8.0 10.0 0.00 0.00 0.00 71 1000.2
20260509023331 61 360 5.0 11.0 0.00 0.00 0.00 69 1000.2
20260509022354 61 146 7.0 10.0 0.00 0.00 0.00 69 1000.2
20260509021850 61 136 6.0 11.0 0.00 0.00 0.00 70 1000.2
20260509020840 61 121 6.0 8.0 0.00 0.00 0.00 68 1000.2
20260509020337 61 162 4.0 10.0 0.00 0.00 0.00 70 1000.2
20260509015337 61 147 6.0 10.0 0.00 0.00 0.00 70 1000.2
20260509014344 61 171 6.0 12.0 0.00 0.00 0.00 67 1000.2
20260509013340 61 175 7.0 11.0 0.00 0.00 0.00 70 1000.2
20260509012837 61 165 6.0 10.0 0.00 0.00 0.00 70 1000.2
20260509012338 61 117 7.0 11.0 0.00 0.00 0.00 69 1000.2
20260509011350 61 158 8.0 13.0 0.00 0.00 0.00 69 1000.2
20260509010359 61 151 11.0 13.0 0.00 0.00 0.00 70 1000.2
20260509005845 61 150 8.0 11.0 0.00 0.00 0.00 69 1000.2
20260509005345 61 165 6.0 11.0 0.00 0.00 0.00 66 1000.2
20260509004838 61 150 8.0 13.0 0.00 0.00 0.00 67 1000.2
20260509003850 61 130 10.0 14.0 0.00 0.00 0.00 69 1000.2
20260509003351 61 163 4.0 11.0 0.00 0.00 0.00 67 1000.2
20260509002849 61 105 6.0 11.0 0.00 0.00 0.00 68 1000.2
20260509002342 61 124 8.0 12.0 0.00 0.00 0.00 68 1000.2
20260509001344 61 155 6.0 11.0 0.00 0.00 0.00 67 1000.2
20260509000351 61 125 7.0 12.0 0.00 0.00 0.00 65 1000.2
20260508235350 61 129 9.0 13.0 0.00 0.00 0.00 68 1000.2
20260508234844 60 140 8.0 13.0 0.00 0.00 0.00 64 1000.2
20260508233843 60 103 10.0 14.0 0.00 0.00 0.00 67 1000.2
20260508232849 60 116 11.0 15.0 0.00 0.00 0.00 67 1000.2
20260508232343 60 111 9.0 13.0 0.00 0.00 0.00 68 1000.2
20260508231834 60 148 5.0 14.0 0.00 0.00 0.00 69 1000.2
20260508231332 60 124 7.0 14.0 0.00 0.00 0.00 68 1000.2
20260508230344 59 146 11.0 14.0 0.00 0.00 0.00 71 1000.2